Change the Weather History Date:

Wednesday, April 16, 2014

  Actual Average Record
Temperature  
Mean Temperature 41 °F 50 °F  
Max Temperature 54 °F 61 °F 86 °F (1977)
Min Temperature 27 °F 38 °F 19 °F (1949)
Degree Days  
Heating Degree Days 24 16  
Month to date heating degree days 307 295  
Since 1 July heating degree days 7291 6159  
Cooling Degree Days 0 0  
Month to date cooling degree days 0 0  
Year to date cooling degree days 0 0  
Moisture  
Dew Point 26 °F    
Average Humidity 57    
Maximum Humidity 75    
Minimum Humidity 38    
Precipitation  
Precipitation 0.00 in 0.11 in 3.17 in (1972)
Month to date precipitation 1.71 1.77  
Year to date precipitation 6.48 6.87  
Snow  
Snow 0.00 in 0.00 in 8.50 in (1921)
Month to date snowfall 0.3 0.7  
Since 1 July snowfall 56.9 36.5  
Snow Depth 0.00 in    
Sea Level Pressure  
Sea Level Pressure 30.19 in    
Wind  
Wind Speed 17 mph (SSE)    
Max Wind Speed 35 mph    
Max Gust Speed 40 mph    
Visibility 10 miles    
Events      
T = Trace of Precipitation, MM = Missing Value Source: NWS Daily Summary

Daily Weather History Graph

Daily Weather History Graph

Search for Another Location

Airport or City:

Trip Planner

Search our weather history database for the weather conditions in past years. The results will help you decide how hot, cold, wet, or windy it might be!

Date:

Astronomy

Apr. 16, 2014 Rise Set
Actual Time 6:14 AM CDT 7:38 PM CDT
Civil Twilight 5:44 AM CDT 8:08 PM CDT
Nautical Twilight 5:09 AM CDT 8:43 PM CDT
Astronomical Twilight 4:32 AM CDT 9:20 PM CDT
Moon 9:24 PM CDT (4/16) 7:00 AM CDT (4/16)
Length of Visible Light 14h 23m
Length of Day
13h 24m
Full, 98% of the Moon is Illuminated
Apr 16
Full
Apr 22
Last Quarter
Apr 29
New
May 6
First Quarter
May 14
Full

Hourly Weather History & Observations

Time (CDT) Temp. Windchill Dew Point Humidity Pressure Visibility Wind Dir Wind Speed Gust Speed Precip Events Conditions
12:54 AM 28.9 °F 23.9 °F 19.9 °F 69% 30.23 in 10.0 mi SSE 4.6 mph - N/A   Clear
1:54 AM 28.0 °F 22.8 °F 21.0 °F 75% 30.24 in 10.0 mi SE 4.6 mph - N/A   Clear
2:54 AM 28.0 °F 20.0 °F 19.9 °F 72% 30.23 in 10.0 mi SSE 8.1 mph - N/A   Clear
3:54 AM 30.0 °F 21.7 °F 21.0 °F 69% 30.24 in 10.0 mi SSE 9.2 mph - N/A   Scattered Clouds
4:54 AM 30.0 °F 21.1 °F 21.9 °F 72% 30.24 in 10.0 mi SSE 10.4 mph - N/A   Partly Cloudy
5:54 AM 30.0 °F 20.5 °F 23.0 °F 75% 30.25 in 10.0 mi SSE 11.5 mph - N/A   Scattered Clouds
6:54 AM 30.0 °F 21.1 °F 23.0 °F 75% 30.27 in 10.0 mi SSE 10.4 mph - N/A   Scattered Clouds
7:54 AM 33.1 °F 24.4 °F 24.1 °F 70% 30.28 in 10.0 mi SSE 11.5 mph - N/A   Mostly Cloudy
8:54 AM 36.0 °F 28.0 °F 25.0 °F 64% 30.27 in 10.0 mi SSE 11.5 mph - N/A   Mostly Cloudy
9:54 AM 39.0 °F 29.9 °F 26.1 °F 60% 30.27 in 10.0 mi SSE 17.3 mph 26.5 mph N/A   Overcast
10:54 AM 43.0 °F 34.0 °F 26.1 °F 51% 30.27 in 10.0 mi South 21.9 mph 31.1 mph N/A   Overcast
11:54 AM 46.9 °F - 28.0 °F 48% 30.24 in 10.0 mi South 28.8 mph 35.7 mph N/A   Overcast
12:54 PM 48.9 °F - 28.0 °F 44% 30.20 in 10.0 mi South 28.8 mph 36.8 mph N/A   Overcast
1:54 PM 51.1 °F - 28.9 °F 43% 30.18 in 10.0 mi SSE 27.6 mph 38.0 mph N/A   Overcast
2:54 PM 52.0 °F - 28.0 °F 40% 30.17 in 10.0 mi South 27.6 mph 40.3 mph N/A   Overcast
3:54 PM 54.0 °F - 28.9 °F 38% 30.14 in 10.0 mi South 26.5 mph 33.4 mph N/A   Scattered Clouds
4:54 PM 53.1 °F - 28.0 °F 38% 30.11 in 10.0 mi SSE 25.3 mph 32.2 mph N/A   Mostly Cloudy
5:54 PM 52.0 °F - 27.0 °F 38% 30.10 in 10.0 mi SSE 23.0 mph 28.8 mph N/A   Overcast
6:54 PM 50.0 °F - 28.0 °F 43% 30.09 in 10.0 mi SSE 19.6 mph 28.8 mph N/A   Overcast
7:54 PM 48.0 °F - 28.0 °F 46% 30.08 in 10.0 mi SSE 17.3 mph 24.2 mph N/A   Overcast
8:54 PM 46.9 °F - 28.0 °F 48% 30.14 in 10.0 mi South 17.3 mph - N/A   Overcast
9:54 PM 45.0 °F 38.5 °F 28.0 °F 52% 30.14 in 10.0 mi SSE 13.8 mph - N/A   Overcast
10:54 PM 43.0 °F 36.8 °F 30.0 °F 60% 30.14 in 10.0 mi SE 11.5 mph - N/A   Overcast
11:54 PM 42.1 °F 35.2 °F 28.9 °F 60% 30.12 in 10.0 mi SSE 12.7 mph - N/A   Overcast